STARLINK-34539

Last updated on Sat Jul 19 2025 00:02:07 GMT+0000 (Coordinated Universal Time)

1 64674U 25139L 25199.58335648 .00032207 00000+0 58530-3 0 9992 2 64674 53.1593 138.1535 0000926 86.8679 108.6419 15.49282385 4271
UTC large
Height (km)
Speed (km/s)
/
Latitude / Longitude
Inclination (degrees)
Orbital Period (minutes)
Azimuth
Elevation
Range (km)
Doppler Factor

Next 0 passes for location: London (51.5072 / 0.1276)

Sorry there are no passes over London.